#datetime,building,power
2023-09-23T00:00:00,rvs,26.28
2023-09-23T00:01:00,rvs,26.54
2023-09-23T00:02:00,rvs,26.49
2023-09-23T00:03:00,rvs,25.87
2023-09-23T00:04:00,rvs,26.08
2023-09-23T00:05:00,rvs,30.08
2023-09-23T00:06:00,rvs,25.97
2023-09-23T00:07:00,rvs,18.41
2023-09-23T00:08:00,rvs,22.46
2023-09-23T00:09:00,rvs,29.89
2023-09-23T00:10:00,rvs,25.78
2023-09-23T00:11:00,rvs,25.52
2023-09-23T00:12:00,rvs,17.87
2023-09-23T00:13:00,rvs,17.79
2023-09-23T00:14:00,rvs,22.10
2023-09-23T00:15:00,rvs,22.36
2023-09-23T00:16:00,rvs,21.96
2023-09-23T00:17:00,rvs,38.08
2023-09-23T00:18:00,rvs,19.55
2023-09-23T00:19:00,rvs,35.19
2023-09-23T00:20:00,rvs,34.66
2023-09-23T00:21:00,rvs,30.76
2023-09-23T00:22:00,rvs,28.36
2023-09-23T00:23:00,rvs,15.06
2023-09-23T00:24:00,rvs,20.89
2023-09-23T00:25:00,rvs,17.11
2023-09-23T00:26:00,rvs,15.19
2023-09-23T00:27:00,rvs,15.33
2023-09-23T00:28:00,rvs,19.72
2023-09-23T00:29:00,rvs,23.79
2023-09-23T00:30:00,rvs,13.91
2023-09-23T00:31:00,rvs,15.21
2023-09-23T00:32:00,rvs,13.83
2023-09-23T00:33:00,rvs,15.50
2023-09-23T00:34:00,rvs,15.61
2023-09-23T00:35:00,rvs,18.65
2023-09-23T00:36:00,rvs,16.88
2023-09-23T00:37:00,rvs,16.28
2023-09-23T00:38:00,rvs,17.44
2023-09-23T00:39:00,rvs,15.22
2023-09-23T00:40:00,rvs,15.53
2023-09-23T00:41:00,rvs,15.52
2023-09-23T00:42:00,rvs,13.71
2023-09-23T00:43:00,rvs,15.65
2023-09-23T00:44:00,rvs,16.58
2023-09-23T00:45:00,rvs,15.35
2023-09-23T00:46:00,rvs,14.20
2023-09-23T00:47:00,rvs,13.34
2023-09-23T00:48:00,rvs,13.29
2023-09-23T00:49:00,rvs,14.38
2023-09-23T00:50:00,rvs,13.57
2023-09-23T00:51:00,rvs,13.40
2023-09-23T00:52:00,rvs,13.31
2023-09-23T00:53:00,rvs,13.14
2023-09-23T00:54:00,rvs,13.13
2023-09-23T00:55:00,rvs,13.69
2023-09-23T00:56:00,rvs,13.91
2023-09-23T00:57:00,rvs,13.83
2023-09-23T00:58:00,rvs,14.37
2023-09-23T00:59:00,rvs,13.22
2023-09-23T01:00:00,rvs,12.66
2023-09-23T01:01:00,rvs,13.08
2023-09-23T01:02:00,rvs,14.12
2023-09-23T01:03:00,rvs,12.64
2023-09-23T01:04:00,rvs,12.54
2023-09-23T01:05:00,rvs,12.38
2023-09-23T01:06:00,rvs,13.66
2023-09-23T01:07:00,rvs,12.99
2023-09-23T01:08:00,rvs,15.15
2023-09-23T01:09:00,rvs,12.51
2023-09-23T01:10:00,rvs,13.27
2023-09-23T01:11:00,rvs,13.19
2023-09-23T01:12:00,rvs,14.35
2023-09-23T01:13:00,rvs,13.23
2023-09-23T01:14:00,rvs,13.17
2023-09-23T01:15:00,rvs,12.38
2023-09-23T01:16:00,rvs,12.48
2023-09-23T01:17:00,rvs,12.41
2023-09-23T01:18:00,rvs,12.53
2023-09-23T01:19:00,rvs,14.41
2023-09-23T01:20:00,rvs,13.59
2023-09-23T01:21:00,rvs,14.15
2023-09-23T01:22:00,rvs,14.79
2023-09-23T01:23:00,rvs,13.57
2023-09-23T01:24:00,rvs,13.52
2023-09-23T01:25:00,rvs,13.69
2023-09-23T01:26:00,rvs,14.72
2023-09-23T01:27:00,rvs,13.47
2023-09-23T01:28:00,rvs,13.26
2023-09-23T01:29:00,rvs,12.90
2023-09-23T01:30:00,rvs,14.01
2023-09-23T01:31:00,rvs,14.55
2023-09-23T01:32:00,rvs,15.20
2023-09-23T01:33:00,rvs,15.15
2023-09-23T01:34:00,rvs,13.29
2023-09-23T01:35:00,rvs,14.36
2023-09-23T01:36:00,rvs,14.08
2023-09-23T01:37:00,rvs,12.87
2023-09-23T01:38:00,rvs,12.68
2023-09-23T01:39:00,rvs,12.68
2023-09-23T01:40:00,rvs,13.31
2023-09-23T01:41:00,rvs,12.85
2023-09-23T01:42:00,rvs,12.72
2023-09-23T01:43:00,rvs,11.94
2023-09-23T01:44:00,rvs,12.92
2023-09-23T01:45:00,rvs,11.59
2023-09-23T01:46:00,rvs,12.22
2023-09-23T01:47:00,rvs,13.86
2023-09-23T01:48:00,rvs,12.36
2023-09-23T01:49:00,rvs,12.28
2023-09-23T01:50:00,rvs,12.28
2023-09-23T01:51:00,rvs,12.12
2023-09-23T01:52:00,rvs,12.08
2023-09-23T01:53:00,rvs,13.37
2023-09-23T01:54:00,rvs,13.05
2023-09-23T01:55:00,rvs,12.84
2023-09-23T01:56:00,rvs,12.69
2023-09-23T01:57:00,rvs,12.31
2023-09-23T01:58:00,rvs,13.59
2023-09-23T01:59:00,rvs,13.09
2023-09-23T02:00:00,rvs,12.74
2023-09-23T02:01:00,rvs,13.71
2023-09-23T02:02:00,rvs,12.28
2023-09-23T02:03:00,rvs,12.32
2023-09-23T02:04:00,rvs,12.24
2023-09-23T02:05:00,rvs,13.21
2023-09-23T02:06:00,rvs,12.78
2023-09-23T02:07:00,rvs,12.49
2023-09-23T02:08:00,rvs,13.01
2023-09-23T02:09:00,rvs,13.01
2023-09-23T02:10:00,rvs,12.03
2023-09-23T02:11:00,rvs,12.34
2023-09-23T02:12:00,rvs,12.82
2023-09-23T02:13:00,rvs,12.97
2023-09-23T02:14:00,rvs,12.23
2023-09-23T02:15:00,rvs,12.30
2023-09-23T02:16:00,rvs,12.95
2023-09-23T02:17:00,rvs,13.00
2023-09-23T02:18:00,rvs,13.60
2023-09-23T02:19:00,rvs,11.85
2023-09-23T02:20:00,rvs,11.70
2023-09-23T02:21:00,rvs,11.50
2023-09-23T02:22:00,rvs,11.60
2023-09-23T02:23:00,rvs,12.08
2023-09-23T02:24:00,rvs,11.71
2023-09-23T02:25:00,rvs,11.74
2023-09-23T02:26:00,rvs,12.96
2023-09-23T02:27:00,rvs,11.99
2023-09-23T02:28:00,rvs,12.02
2023-09-23T02:29:00,rvs,11.90
2023-09-23T02:30:00,rvs,11.74
2023-09-23T02:31:00,rvs,12.75
2023-09-23T02:32:00,rvs,11.78
2023-09-23T02:33:00,rvs,12.20
2023-09-23T02:34:00,rvs,12.13
2023-09-23T02:35:00,rvs,11.92
2023-09-23T02:36:00,rvs,12.08
2023-09-23T02:37:00,rvs,11.78
2023-09-23T02:38:00,rvs,11.74
2023-09-23T02:39:00,rvs,13.18
2023-09-23T02:40:00,rvs,11.69
2023-09-23T02:41:00,rvs,11.68
2023-09-23T02:42:00,rvs,12.32
2023-09-23T02:43:00,rvs,11.09
2023-09-23T02:44:00,rvs,10.91
2023-09-23T02:45:00,rvs,10.79
2023-09-23T02:46:00,rvs,10.73
2023-09-23T02:47:00,rvs,10.69
2023-09-23T02:48:00,rvs,11.55
2023-09-23T02:49:00,rvs,11.65
2023-09-23T02:50:00,rvs,11.13
2023-09-23T02:51:00,rvs,24.70
2023-09-23T02:52:00,rvs,24.17
2023-09-23T02:53:00,rvs,25.36
2023-09-23T02:54:00,rvs,16.05
2023-09-23T02:55:00,rvs,11.63
2023-09-23T02:56:00,rvs,11.48
2023-09-23T02:57:00,rvs,11.37
2023-09-23T02:58:00,rvs,11.17
2023-09-23T02:59:00,rvs,11.63
2023-09-23T03:00:00,rvs,12.22
2023-09-23T03:01:00,rvs,11.15
2023-09-23T03:02:00,rvs,11.09
2023-09-23T03:03:00,rvs,11.07
2023-09-23T03:04:00,rvs,11.05
2023-09-23T03:05:00,rvs,11.19
2023-09-23T03:06:00,rvs,11.30
2023-09-23T03:07:00,rvs,11.26
2023-09-23T03:08:00,rvs,11.07
2023-09-23T03:09:00,rvs,11.10
2023-09-23T03:10:00,rvs,10.69
2023-09-23T03:11:00,rvs,10.80
2023-09-23T03:12:00,rvs,10.61
2023-09-23T03:13:00,rvs,10.72
2023-09-23T03:14:00,rvs,10.84
2023-09-23T03:15:00,rvs,10.76
2023-09-23T03:16:00,rvs,15.22
2023-09-23T03:17:00,rvs,15.38
2023-09-23T03:18:00,rvs,16.40
2023-09-23T03:19:00,rvs,10.55
2023-09-23T03:20:00,rvs,10.53
2023-09-23T03:21:00,rvs,10.58
2023-09-23T03:22:00,rvs,10.65
2023-09-23T03:23:00,rvs,10.59
2023-09-23T03:24:00,rvs,10.49
2023-09-23T03:25:00,rvs,10.65
2023-09-23T03:26:00,rvs,10.72
2023-09-23T03:27:00,rvs,10.61
2023-09-23T03:28:00,rvs,10.44
2023-09-23T03:29:00,rvs,10.41
2023-09-23T03:30:00,rvs,10.54
2023-09-23T03:31:00,rvs,11.14
2023-09-23T03:32:00,rvs,11.39
2023-09-23T03:33:00,rvs,11.29
2023-09-23T03:34:00,rvs,12.32
2023-09-23T03:35:00,rvs,11.21
2023-09-23T03:36:00,rvs,11.35
2023-09-23T03:37:00,rvs,10.71
2023-09-23T03:38:00,rvs,10.55
2023-09-23T03:39:00,rvs,11.87
2023-09-23T03:40:00,rvs,10.74
2023-09-23T03:41:00,rvs,10.75
2023-09-23T03:42:00,rvs,10.78
2023-09-23T03:43:00,rvs,11.13
2023-09-23T03:44:00,rvs,11.24
2023-09-23T03:45:00,rvs,11.56
2023-09-23T03:46:00,rvs,11.09
2023-09-23T03:47:00,rvs,10.94
2023-09-23T03:48:00,rvs,10.92
2023-09-23T03:49:00,rvs,11.63
2023-09-23T03:50:00,rvs,11.67
2023-09-23T03:51:00,rvs,11.11
2023-09-23T03:52:00,rvs,10.92
2023-09-23T03:53:00,rvs,11.52
2023-09-23T03:54:00,rvs,11.15
2023-09-23T03:55:00,rvs,12.30
2023-09-23T03:56:00,rvs,12.17
2023-09-23T03:57:00,rvs,11.00
2023-09-23T03:58:00,rvs,10.91
2023-09-23T03:59:00,rvs,10.79
2023-09-23T04:00:00,rvs,12.16
2023-09-23T04:01:00,rvs,10.65
2023-09-23T04:02:00,rvs,10.72
2023-09-23T04:03:00,rvs,10.59
2023-09-23T04:04:00,rvs,10.62
2023-09-23T04:05:00,rvs,10.59
2023-09-23T04:06:00,rvs,10.38
2023-09-23T04:07:00,rvs,10.37
2023-09-23T04:08:00,rvs,10.26
2023-09-23T04:09:00,rvs,10.33
2023-09-23T04:10:00,rvs,10.23
2023-09-23T04:11:00,rvs,11.27
2023-09-23T04:12:00,rvs,11.48
2023-09-23T04:13:00,rvs,11.47
2023-09-23T04:14:00,rvs,10.56
2023-09-23T04:15:00,rvs,10.28
2023-09-23T04:16:00,rvs,10.44
2023-09-23T04:17:00,rvs,10.53
2023-09-23T04:18:00,rvs,10.67
2023-09-23T04:19:00,rvs,10.70
2023-09-23T04:20:00,rvs,10.97
2023-09-23T04:21:00,rvs,11.13
2023-09-23T04:22:00,rvs,11.40
2023-09-23T04:23:00,rvs,10.65
2023-09-23T04:24:00,rvs,10.57
2023-09-23T04:25:00,rvs,10.53
2023-09-23T04:26:00,rvs,10.52
2023-09-23T04:27:00,rvs,10.60
2023-09-23T04:28:00,rvs,10.93
2023-09-23T04:29:00,rvs,10.82
2023-09-23T04:30:00,rvs,10.82
2023-09-23T04:31:00,rvs,10.71
2023-09-23T04:32:00,rvs,10.38
2023-09-23T04:33:00,rvs,11.65
2023-09-23T04:34:00,rvs,10.94
2023-09-23T04:35:00,rvs,11.55
2023-09-23T04:36:00,rvs,12.22
2023-09-23T04:37:00,rvs,11.76
2023-09-23T04:38:00,rvs,11.70
2023-09-23T04:39:00,rvs,11.55
2023-09-23T04:40:00,rvs,11.63
2023-09-23T04:41:00,rvs,11.48
2023-09-23T04:42:00,rvs,11.42
2023-09-23T04:43:00,rvs,11.40
2023-09-23T04:44:00,rvs,11.54
2023-09-23T04:45:00,rvs,11.79
2023-09-23T04:46:00,rvs,11.71
2023-09-23T04:47:00,rvs,11.67
2023-09-23T04:48:00,rvs,12.03
2023-09-23T04:49:00,rvs,11.72
2023-09-23T04:50:00,rvs,11.93
2023-09-23T04:51:00,rvs,11.76
2023-09-23T04:52:00,rvs,10.58
2023-09-23T04:53:00,rvs,10.61
2023-09-23T04:54:00,rvs,10.70
2023-09-23T04:55:00,rvs,10.81
2023-09-23T04:56:00,rvs,10.64
2023-09-23T04:57:00,rvs,11.70
2023-09-23T04:58:00,rvs,10.45
2023-09-23T04:59:00,rvs,10.19
2023-09-23T05:00:00,rvs,10.26
2023-09-23T05:01:00,rvs,10.61
2023-09-23T05:02:00,rvs,10.35
2023-09-23T05:03:00,rvs,10.32
2023-09-23T05:04:00,rvs,10.34
2023-09-23T05:05:00,rvs,10.38
2023-09-23T05:06:00,rvs,15.05
2023-09-23T05:07:00,rvs,15.05
2023-09-23T05:08:00,rvs,15.73
2023-09-23T05:09:00,rvs,10.39
2023-09-23T05:10:00,rvs,10.48
2023-09-23T05:11:00,rvs,11.09
2023-09-23T05:12:00,rvs,10.62
2023-09-23T05:13:00,rvs,10.63
2023-09-23T05:14:00,rvs,11.81
2023-09-23T05:15:00,rvs,11.48
2023-09-23T05:16:00,rvs,11.09
2023-09-23T05:17:00,rvs,11.02
2023-09-23T05:18:00,rvs,10.98
2023-09-23T05:19:00,rvs,10.43
2023-09-23T05:20:00,rvs,11.35
2023-09-23T05:21:00,rvs,10.37
2023-09-23T05:22:00,rvs,11.00
2023-09-23T05:23:00,rvs,10.43
2023-09-23T05:24:00,rvs,10.46
2023-09-23T05:25:00,rvs,10.86
2023-09-23T05:26:00,rvs,11.00
2023-09-23T05:27:00,rvs,10.81
2023-09-23T05:28:00,rvs,12.05
2023-09-23T05:29:00,rvs,11.25
2023-09-23T05:30:00,rvs,12.04
2023-09-23T05:31:00,rvs,10.84
2023-09-23T05:32:00,rvs,10.91
2023-09-23T05:33:00,rvs,11.42
2023-09-23T05:34:00,rvs,10.92
2023-09-23T05:35:00,rvs,11.09
2023-09-23T05:36:00,rvs,10.97
2023-09-23T05:37:00,rvs,11.23
2023-09-23T05:38:00,rvs,23.75
2023-09-23T05:39:00,rvs,23.56
2023-09-23T05:40:00,rvs,23.39
2023-09-23T05:41:00,rvs,10.65
2023-09-23T05:42:00,rvs,10.67
2023-09-23T05:43:00,rvs,10.60
2023-09-23T05:44:00,rvs,10.77
2023-09-23T05:45:00,rvs,10.62
2023-09-23T05:46:00,rvs,11.66
2023-09-23T05:47:00,rvs,11.67
2023-09-23T05:48:00,rvs,10.60
2023-09-23T05:49:00,rvs,10.74
2023-09-23T05:50:00,rvs,10.69
2023-09-23T05:51:00,rvs,11.14
2023-09-23T05:52:00,rvs,12.05
2023-09-23T05:53:00,rvs,11.39
2023-09-23T05:54:00,rvs,12.43
2023-09-23T05:55:00,rvs,11.57
2023-09-23T05:56:00,rvs,11.53
2023-09-23T05:57:00,rvs,11.48
2023-09-23T05:58:00,rvs,11.43
2023-09-23T05:59:00,rvs,11.49
2023-09-23T06:00:00,rvs,11.41
2023-09-23T06:01:00,rvs,11.34
2023-09-23T06:02:00,rvs,12.04
2023-09-23T06:03:00,rvs,12.76
2023-09-23T06:04:00,rvs,11.95
2023-09-23T06:05:00,rvs,11.51
2023-09-23T06:06:00,rvs,11.84
2023-09-23T06:07:00,rvs,13.36
2023-09-23T06:08:00,rvs,11.60
2023-09-23T06:09:00,rvs,11.56
2023-09-23T06:10:00,rvs,10.90
2023-09-23T06:11:00,rvs,10.83
2023-09-23T06:12:00,rvs,10.36
2023-09-23T06:13:00,rvs,10.35
2023-09-23T06:14:00,rvs,11.40
2023-09-23T06:15:00,rvs,10.42
2023-09-23T06:16:00,rvs,10.42
2023-09-23T06:17:00,rvs,10.40
2023-09-23T06:18:00,rvs,10.13
2023-09-23T06:19:00,rvs,11.33
2023-09-23T06:20:00,rvs,10.17
2023-09-23T06:21:00,rvs,10.28
2023-09-23T06:22:00,rvs,10.13
2023-09-23T06:23:00,rvs,10.38
2023-09-23T06:24:00,rvs,10.53
2023-09-23T06:25:00,rvs,11.69
2023-09-23T06:26:00,rvs,10.77
2023-09-23T06:27:00,rvs,10.68
2023-09-23T06:28:00,rvs,10.64
2023-09-23T06:29:00,rvs,10.59
2023-09-23T06:30:00,rvs,10.49
2023-09-23T06:31:00,rvs,10.54
2023-09-23T06:32:00,rvs,10.72
2023-09-23T06:33:00,rvs,10.52
2023-09-23T06:34:00,rvs,10.40
2023-09-23T06:35:00,rvs,10.37
2023-09-23T06:36:00,rvs,11.46
2023-09-23T06:37:00,rvs,10.36
2023-09-23T06:38:00,rvs,11.05
2023-09-23T06:39:00,rvs,11.51
2023-09-23T06:40:00,rvs,11.03
2023-09-23T06:41:00,rvs,11.18
2023-09-23T06:42:00,rvs,10.99
2023-09-23T06:43:00,rvs,10.97
2023-09-23T06:44:00,rvs,11.36
2023-09-23T06:45:00,rvs,12.19
2023-09-23T06:46:00,rvs,11.13
2023-09-23T06:47:00,rvs,10.73
2023-09-23T06:48:00,rvs,10.93
2023-09-23T06:49:00,rvs,15.27
2023-09-23T06:50:00,rvs,15.47
2023-09-23T06:51:00,rvs,16.46
2023-09-23T06:52:00,rvs,11.38
2023-09-23T06:53:00,rvs,10.57
2023-09-23T06:54:00,rvs,10.60
2023-09-23T06:55:00,rvs,10.57
2023-09-23T06:56:00,rvs,10.50
2023-09-23T06:57:00,rvs,10.56
2023-09-23T06:58:00,rvs,10.23
2023-09-23T06:59:00,rvs,10.97
2023-09-23T07:00:00,rvs,10.08
2023-09-23T07:01:00,rvs,10.08
2023-09-23T07:02:00,rvs,10.03
2023-09-23T07:03:00,rvs,11.07
2023-09-23T07:04:00,rvs,9.99
2023-09-23T07:05:00,rvs,9.94
2023-09-23T07:06:00,rvs,10.03
2023-09-23T07:07:00,rvs,9.99
2023-09-23T07:08:00,rvs,10.06
2023-09-23T07:09:00,rvs,10.01
2023-09-23T07:10:00,rvs,10.46
2023-09-23T07:11:00,rvs,10.40
2023-09-23T07:12:00,rvs,11.77
2023-09-23T07:13:00,rvs,10.54
2023-09-23T07:14:00,rvs,10.60
2023-09-23T07:15:00,rvs,10.56
2023-09-23T07:16:00,rvs,10.67
2023-09-23T07:17:00,rvs,10.13
2023-09-23T07:18:00,rvs,11.27
2023-09-23T07:19:00,rvs,10.08
2023-09-23T07:20:00,rvs,10.03
2023-09-23T07:21:00,rvs,9.96
2023-09-23T07:22:00,rvs,9.88
2023-09-23T07:23:00,rvs,10.28
2023-09-23T07:24:00,rvs,9.95
2023-09-23T07:25:00,rvs,10.10
2023-09-23T07:26:00,rvs,9.93
2023-09-23T07:27:00,rvs,10.00
2023-09-23T07:28:00,rvs,10.13
2023-09-23T07:29:00,rvs,11.21
2023-09-23T07:30:00,rvs,10.15
2023-09-23T07:31:00,rvs,10.03
2023-09-23T07:32:00,rvs,10.32
2023-09-23T07:33:00,rvs,10.43
2023-09-23T07:34:00,rvs,11.55
2023-09-23T07:35:00,rvs,10.49
2023-09-23T07:36:00,rvs,10.35
2023-09-23T07:37:00,rvs,10.26
2023-09-23T07:38:00,rvs,10.27
2023-09-23T07:39:00,rvs,10.30
2023-09-23T07:40:00,rvs,11.38
2023-09-23T07:41:00,rvs,10.29
2023-09-23T07:42:00,rvs,10.23
2023-09-23T07:43:00,rvs,10.31
2023-09-23T07:44:00,rvs,10.58
2023-09-23T07:45:00,rvs,10.85
2023-09-23T07:46:00,rvs,10.85
2023-09-23T07:47:00,rvs,10.28
2023-09-23T07:48:00,rvs,10.23
2023-09-23T07:49:00,rvs,10.61
2023-09-23T07:50:00,rvs,10.11
2023-09-23T07:51:00,rvs,11.28
2023-09-23T07:52:00,rvs,9.93
2023-09-23T07:53:00,rvs,9.95
2023-09-23T07:54:00,rvs,10.03
2023-09-23T07:55:00,rvs,10.28
2023-09-23T07:56:00,rvs,10.22
2023-09-23T07:57:00,rvs,11.70
2023-09-23T07:58:00,rvs,10.51
2023-09-23T07:59:00,rvs,10.53
2023-09-23T08:00:00,rvs,10.39
2023-09-23T08:01:00,rvs,10.34
2023-09-23T08:02:00,rvs,10.26
2023-09-23T08:03:00,rvs,10.37
2023-09-23T08:04:00,rvs,10.43
2023-09-23T08:05:00,rvs,10.47
2023-09-23T08:06:00,rvs,11.62
2023-09-23T08:07:00,rvs,11.62
2023-09-23T08:08:00,rvs,10.97
2023-09-23T08:09:00,rvs,10.86
2023-09-23T08:10:00,rvs,11.12
2023-09-23T08:11:00,rvs,11.16
2023-09-23T08:12:00,rvs,11.21
2023-09-23T08:13:00,rvs,12.25
2023-09-23T08:14:00,rvs,10.75
2023-09-23T08:15:00,rvs,10.88
2023-09-23T08:16:00,rvs,12.22
2023-09-23T08:17:00,rvs,11.15
2023-09-23T08:18:00,rvs,12.62
2023-09-23T08:19:00,rvs,11.33
2023-09-23T08:20:00,rvs,11.03
2023-09-23T08:21:00,rvs,11.10
2023-09-23T08:22:00,rvs,11.07
2023-09-23T08:23:00,rvs,10.70
2023-09-23T08:24:00,rvs,10.94
2023-09-23T08:25:00,rvs,10.92
2023-09-23T08:26:00,rvs,10.89
2023-09-23T08:27:00,rvs,11.93
2023-09-23T08:28:00,rvs,10.88
2023-09-23T08:29:00,rvs,11.40
2023-09-23T08:30:00,rvs,11.29
2023-09-23T08:31:00,rvs,10.80
2023-09-23T08:32:00,rvs,10.77
2023-09-23T08:33:00,rvs,11.34
2023-09-23T08:34:00,rvs,11.19
2023-09-23T08:35:00,rvs,25.34
2023-09-23T08:36:00,rvs,28.12
2023-09-23T08:37:00,rvs,29.15
2023-09-23T08:38:00,rvs,28.76
2023-09-23T08:39:00,rvs,28.72
2023-09-23T08:40:00,rvs,28.87
2023-09-23T08:41:00,rvs,12.15
2023-09-23T08:42:00,rvs,11.79
2023-09-23T08:43:00,rvs,11.86
2023-09-23T08:44:00,rvs,11.54
2023-09-23T08:45:00,rvs,11.45
2023-09-23T08:46:00,rvs,28.40
2023-09-23T08:47:00,rvs,11.41
2023-09-23T08:48:00,rvs,11.88
2023-09-23T08:49:00,rvs,12.27
2023-09-23T08:50:00,rvs,11.74
2023-09-23T08:51:00,rvs,11.73
2023-09-23T08:52:00,rvs,12.63
2023-09-23T08:53:00,rvs,11.56
2023-09-23T08:54:00,rvs,11.36
2023-09-23T08:55:00,rvs,12.61
2023-09-23T08:56:00,rvs,11.17
2023-09-23T08:57:00,rvs,11.43
2023-09-23T08:58:00,rvs,11.64
2023-09-23T08:59:00,rvs,11.84
2023-09-23T09:00:00,rvs,11.91
2023-09-23T09:01:00,rvs,12.32
2023-09-23T09:02:00,rvs,13.40
2023-09-23T09:03:00,rvs,12.09
2023-09-23T09:04:00,rvs,12.20
2023-09-23T09:05:00,rvs,12.37
2023-09-23T09:06:00,rvs,13.32
2023-09-23T09:07:00,rvs,13.12
2023-09-23T09:08:00,rvs,12.87
2023-09-23T09:09:00,rvs,12.73
2023-09-23T09:10:00,rvs,12.46
2023-09-23T09:11:00,rvs,13.26
2023-09-23T09:12:00,rvs,12.24
2023-09-23T09:13:00,rvs,16.55
2023-09-23T09:14:00,rvs,17.38
2023-09-23T09:15:00,rvs,17.43
2023-09-23T09:16:00,rvs,18.00
2023-09-23T09:17:00,rvs,16.72
2023-09-23T09:18:00,rvs,16.69
2023-09-23T09:19:00,rvs,17.46
2023-09-23T09:20:00,rvs,16.50
2023-09-23T09:21:00,rvs,16.30
2023-09-23T09:22:00,rvs,16.82
2023-09-23T09:23:00,rvs,16.53
2023-09-23T09:24:00,rvs,16.35
2023-09-23T09:25:00,rvs,16.27
2023-09-23T09:26:00,rvs,16.28
2023-09-23T09:27:00,rvs,17.12
2023-09-23T09:28:00,rvs,15.88
2023-09-23T09:29:00,rvs,16.29
2023-09-23T09:30:00,rvs,16.26
2023-09-23T09:31:00,rvs,15.92
2023-09-23T09:32:00,rvs,15.62
2023-09-23T09:33:00,rvs,16.83
2023-09-23T09:34:00,rvs,15.70
2023-09-23T09:35:00,rvs,15.28
2023-09-23T09:36:00,rvs,15.33
2023-09-23T09:37:00,rvs,15.57
2023-09-23T09:38:00,rvs,15.08
2023-09-23T09:39:00,rvs,16.25
2023-09-23T09:40:00,rvs,15.42
2023-09-23T09:41:00,rvs,15.54
2023-09-23T09:42:00,rvs,19.72
2023-09-23T09:43:00,rvs,32.28
2023-09-23T09:44:00,rvs,16.29
2023-09-23T09:45:00,rvs,20.64
2023-09-23T09:46:00,rvs,21.23
2023-09-23T09:47:00,rvs,20.20
2023-09-23T09:48:00,rvs,16.57
2023-09-23T09:49:00,rvs,16.54
2023-09-23T09:50:00,rvs,20.68
2023-09-23T09:51:00,rvs,20.51
2023-09-23T09:52:00,rvs,16.40
2023-09-23T09:53:00,rvs,16.97
2023-09-23T09:54:00,rvs,16.32
2023-09-23T09:55:00,rvs,17.49
2023-09-23T09:56:00,rvs,16.22
2023-09-23T09:57:00,rvs,16.02
2023-09-23T09:58:00,rvs,15.98
2023-09-23T09:59:00,rvs,11.78
2023-09-23T10:00:00,rvs,16.75
2023-09-23T10:01:00,rvs,20.71
2023-09-23T10:02:00,rvs,16.20
2023-09-23T10:03:00,rvs,16.11
2023-09-23T10:04:00,rvs,20.25
2023-09-23T10:05:00,rvs,17.23
2023-09-23T10:06:00,rvs,16.18
2023-09-23T10:07:00,rvs,20.32
2023-09-23T10:08:00,rvs,19.23
2023-09-23T10:09:00,rvs,15.72
2023-09-23T10:10:00,rvs,17.57
2023-09-23T10:11:00,rvs,20.44
2023-09-23T10:12:00,rvs,16.49
2023-09-23T10:13:00,rvs,16.60
2023-09-23T10:14:00,rvs,16.26
2023-09-23T10:15:00,rvs,20.27
2023-09-23T10:16:00,rvs,16.26
2023-09-23T10:17:00,rvs,16.14
2023-09-23T10:18:00,rvs,15.98
2023-09-23T10:19:00,rvs,20.07
2023-09-23T10:20:00,rvs,16.12
2023-09-23T10:21:00,rvs,17.10
2023-09-23T10:22:00,rvs,15.74
2023-09-23T10:23:00,rvs,20.43
2023-09-23T10:24:00,rvs,16.00
2023-09-23T10:25:00,rvs,15.92
2023-09-23T10:26:00,rvs,16.71
2023-09-23T10:27:00,rvs,20.16
2023-09-23T10:28:00,rvs,19.60
2023-09-23T10:29:00,rvs,15.68
2023-09-23T10:30:00,rvs,15.66
2023-09-23T10:31:00,rvs,15.82
2023-09-23T10:32:00,rvs,21.80
2023-09-23T10:33:00,rvs,15.82
2023-09-23T10:34:00,rvs,15.77
2023-09-23T10:35:00,rvs,15.74
2023-09-23T10:36:00,rvs,21.25
2023-09-23T10:37:00,rvs,19.97
2023-09-23T10:38:00,rvs,20.04
2023-09-23T10:39:00,rvs,38.50
2023-09-23T10:40:00,rvs,20.29
2023-09-23T10:41:00,rvs,21.32
2023-09-23T10:42:00,rvs,21.66
2023-09-23T10:43:00,rvs,20.75
2023-09-23T10:44:00,rvs,16.34
2023-09-23T10:45:00,rvs,16.61
2023-09-23T10:46:00,rvs,16.85
2023-09-23T10:47:00,rvs,18.14
2023-09-23T10:48:00,rvs,16.75
2023-09-23T10:49:00,rvs,16.50
2023-09-23T10:50:00,rvs,16.75
2023-09-23T10:51:00,rvs,16.84
2023-09-23T10:52:00,rvs,16.43
2023-09-23T10:53:00,rvs,16.47
2023-09-23T10:54:00,rvs,15.83
2023-09-23T10:55:00,rvs,15.13
2023-09-23T10:56:00,rvs,16.22
2023-09-23T10:57:00,rvs,16.18
2023-09-23T10:58:00,rvs,16.20
2023-09-23T10:59:00,rvs,16.30
2023-09-23T11:00:00,rvs,16.11
2023-09-23T11:01:00,rvs,16.21
2023-09-23T11:02:00,rvs,16.10
2023-09-23T11:03:00,rvs,16.17
2023-09-23T11:04:00,rvs,16.20
2023-09-23T11:05:00,rvs,16.22
2023-09-23T11:06:00,rvs,17.16
2023-09-23T11:07:00,rvs,16.33
2023-09-23T11:08:00,rvs,16.02
2023-09-23T11:09:00,rvs,16.23
2023-09-23T11:10:00,rvs,16.98
2023-09-23T11:11:00,rvs,22.84
2023-09-23T11:12:00,rvs,22.92
2023-09-23T11:13:00,rvs,18.73
2023-09-23T11:14:00,rvs,14.05
2023-09-23T11:15:00,rvs,16.25
2023-09-23T11:16:00,rvs,16.78
2023-09-23T11:17:00,rvs,16.75
2023-09-23T11:18:00,rvs,12.67
2023-09-23T11:19:00,rvs,12.26
2023-09-23T11:20:00,rvs,16.19
2023-09-23T11:21:00,rvs,12.06
2023-09-23T11:22:00,rvs,11.93
2023-09-23T11:23:00,rvs,13.08
2023-09-23T11:24:00,rvs,25.87
2023-09-23T11:25:00,rvs,24.99
2023-09-23T11:26:00,rvs,24.99
2023-09-23T11:27:00,rvs,24.97
2023-09-23T11:28:00,rvs,17.37
2023-09-23T11:29:00,rvs,13.00
2023-09-23T11:30:00,rvs,12.04
2023-09-23T11:31:00,rvs,11.84
2023-09-23T11:32:00,rvs,12.87
2023-09-23T11:33:00,rvs,11.78
2023-09-23T11:34:00,rvs,11.93
2023-09-23T11:35:00,rvs,11.79
2023-09-23T11:36:00,rvs,12.28
2023-09-23T11:37:00,rvs,11.53
2023-09-23T11:38:00,rvs,12.01
2023-09-23T11:39:00,rvs,11.68
2023-09-23T11:40:00,rvs,11.91
2023-09-23T11:41:00,rvs,13.22
2023-09-23T11:42:00,rvs,13.41
2023-09-23T11:43:00,rvs,12.86
2023-09-23T11:44:00,rvs,12.69
2023-09-23T11:45:00,rvs,14.52
2023-09-23T11:46:00,rvs,12.52
2023-09-23T11:47:00,rvs,11.67
2023-09-23T11:48:00,rvs,11.90
2023-09-23T11:49:00,rvs,12.20
2023-09-23T11:50:00,rvs,12.89
2023-09-23T11:51:00,rvs,13.17
2023-09-23T11:52:00,rvs,11.96
2023-09-23T11:53:00,rvs,11.89
2023-09-23T11:54:00,rvs,11.95
2023-09-23T11:55:00,rvs,13.21
2023-09-23T11:56:00,rvs,12.06
2023-09-23T11:57:00,rvs,12.06
2023-09-23T11:58:00,rvs,13.24
2023-09-23T11:59:00,rvs,12.09
2023-09-23T12:00:00,rvs,12.10
2023-09-23T12:01:00,rvs,12.17
2023-09-23T12:02:00,rvs,12.04
2023-09-23T12:03:00,rvs,11.94
2023-09-23T12:04:00,rvs,13.08
2023-09-23T12:05:00,rvs,12.17
2023-09-23T12:06:00,rvs,12.63
2023-09-23T12:07:00,rvs,12.10
2023-09-23T12:08:00,rvs,12.23
2023-09-23T12:09:00,rvs,13.50
2023-09-23T12:10:00,rvs,12.22
2023-09-23T12:11:00,rvs,12.20
2023-09-23T12:12:00,rvs,12.08
2023-09-23T12:13:00,rvs,12.15
2023-09-23T12:14:00,rvs,11.82
2023-09-23T12:15:00,rvs,12.20
2023-09-23T12:16:00,rvs,11.90
2023-09-23T12:17:00,rvs,11.96
2023-09-23T12:18:00,rvs,11.93
2023-09-23T12:19:00,rvs,12.90
2023-09-23T12:20:00,rvs,12.96
2023-09-23T12:21:00,rvs,12.33
2023-09-23T12:22:00,rvs,12.33
2023-09-23T12:23:00,rvs,12.94
2023-09-23T12:24:00,rvs,11.62
2023-09-23T12:25:00,rvs,11.73
2023-09-23T12:26:00,rvs,11.89
2023-09-23T12:27:00,rvs,11.91
2023-09-23T12:28:00,rvs,13.67
2023-09-23T12:29:00,rvs,12.55
2023-09-23T12:30:00,rvs,12.73
2023-09-23T12:31:00,rvs,12.26
2023-09-23T12:32:00,rvs,11.55
2023-09-23T12:33:00,rvs,12.82
2023-09-23T12:34:00,rvs,11.80
2023-09-23T12:35:00,rvs,12.01
2023-09-23T12:36:00,rvs,11.98
2023-09-23T12:37:00,rvs,12.09
2023-09-23T12:38:00,rvs,12.34
2023-09-23T12:39:00,rvs,12.39
2023-09-23T12:40:00,rvs,12.61
2023-09-23T12:41:00,rvs,11.43
2023-09-23T12:42:00,rvs,11.46
2023-09-23T12:43:00,rvs,11.24
2023-09-23T12:44:00,rvs,11.27
2023-09-23T12:45:00,rvs,12.33
2023-09-23T12:46:00,rvs,11.65
2023-09-23T12:47:00,rvs,11.32
2023-09-23T12:48:00,rvs,11.43
2023-09-23T12:49:00,rvs,13.86
2023-09-23T12:50:00,rvs,11.22
2023-09-23T12:51:00,rvs,11.44
2023-09-23T12:52:00,rvs,14.60
2023-09-23T12:53:00,rvs,15.36
2023-09-23T12:54:00,rvs,14.69
2023-09-23T12:55:00,rvs,13.95
2023-09-23T12:56:00,rvs,12.32
2023-09-23T12:57:00,rvs,12.34
2023-09-23T12:58:00,rvs,13.42
2023-09-23T12:59:00,rvs,12.55
2023-09-23T13:00:00,rvs,12.57
2023-09-23T13:01:00,rvs,12.68
2023-09-23T13:02:00,rvs,12.92
2023-09-23T13:03:00,rvs,12.51
2023-09-23T13:04:00,rvs,12.25
2023-09-23T13:05:00,rvs,12.21
2023-09-23T13:06:00,rvs,12.27
2023-09-23T13:07:00,rvs,12.79
2023-09-23T13:08:00,rvs,12.88
2023-09-23T13:09:00,rvs,12.94
2023-09-23T13:10:00,rvs,14.05
2023-09-23T13:11:00,rvs,12.88
2023-09-23T13:12:00,rvs,12.58
2023-09-23T13:13:00,rvs,12.74
2023-09-23T13:14:00,rvs,12.62
2023-09-23T13:15:00,rvs,14.04
2023-09-23T13:16:00,rvs,13.14
2023-09-23T13:17:00,rvs,13.33
2023-09-23T13:18:00,rvs,12.85